Home   Weather   Assisi   Past weeks
Flag for Italy

Past Weather in Assisi, Italy — Yesterday and Last 2 Weeks

Now
72 °F

Clear.


Feels Like: 77 °F
Forecast: 87 / 58 °F
Wind: 1 mph from North

Location: Perugia Airport

Current Time: Jun 21, 2019 at 12:14:53 am

Latest Report: Jun 20, 2019 at 10:50 pm


Visibility: 10 mi

Pressure: 29.98 "Hg

Humidity: 53%

Dew Point: 54 °F

Location of AssisiLocation

Past Weather in Assisi — Graph

°F

Assisi Temperature Yesterday

Maximum temperature yesterday: 88 °F (at 2:50 pm)
Minimum temperature yesterday: 59 °F (at 5:50 am)
Average temperature yesterday: 75 °F

High & Low Weather Summary for the Past Weeks

 TemperatureHumidityPressure
High97 °F (Jun 14, 3:50 pm)94% (Jun 6, 3:50 am)30.18 "Hg (Jun 6, 3:50 am)
Low54 °F (Jun 7, 2:50 am)21% (Jun 13, 4:50 pm)29.77 "Hg (Jun 11, 5:50 pm)
Average75 °F60%29.97 "Hg
* Reported Jun 5 10:50 pm — Jun 20 10:50 pm, Assisi. Weather by CustomWeather, © 2019

Note: Actual official high and low records may vary slightly from our data, if they occured in-between our weather recording intervals... More about our weather records

Advertising

Assisi Weather History for the Previous 24 Hours

Scroll right to see more
 ConditionsComfort  
Time TempWeatherWind HumidityBarometerVisibility
10:50 pm
Thu, Jun 20
72 °FClear.1 mph53%29.98 "Hg10 mi
9:50 pm77 °FPassing clouds.3 mph42%29.95 "HgN/A
8:50 pm79 °FSunny.7 mph37%29.95 "Hg10 mi
7:50 pm84 °FSunny.12 mph33%29.92 "Hg10 mi
6:50 pm88 °FSunny.12 mph35%29.89 "Hg10 mi
5:50 pm88 °FPassing clouds.8 mph31%29.89 "HgN/A
4:50 pm88 °FPassing clouds.6 mph29%29.92 "HgN/A
3:50 pm88 °FSunny.9 mph31%29.92 "Hg10 mi
2:50 pm88 °FPassing clouds.8 mph31%29.92 "HgN/A
1:50 pm86 °FPassing clouds.6 mph35%29.95 "HgN/A
12:50 pm86 °FPassing clouds.7 mph38%29.95 "HgN/A
11:50 am82 °FSunny.3 mph48%29.98 "Hg10 mi
10:50 am79 °FSunny.3 mph54%29.98 "Hg10 mi
9:50 am75 °FSunny.2 mph57%29.98 "Hg10 mi
8:50 am72 °FSunny.1 mph65%29.98 "Hg10 mi
7:50 am66 °FSunny.5 mph78%29.98 "Hg10 mi
6:50 am63 °FMild.2 mph88%29.98 "HgN/A
5:50 am59 °FCool.3 mph88%29.98 "HgN/A
4:50 am61 °FCool.2 mph88%29.95 "HgN/A
3:50 am61 °FCool.3 mph88%29.95 "HgN/A
2:50 am63 °FMild.5 mph83%29.95 "HgN/A
1:50 am64 °FMild.7 mph83%29.95 "HgN/A
12:50 am64 °FMild.3 mph83%29.95 "HgN/A
Weather by CustomWeather, © 2019

See weather overview